Weather History for KRIL - August, 2013

Change the Weather History Date:

Thursday, August 29, 2013

  Actual Average Record
Temperature  
Mean Temperature 76 °F 67 °F  
Max Temperature 95 °F 85 °F 98 °F (1990)
Min Temperature 57 °F 50 °F 36 °F (1962)
Degree Days  
Heating Degree Days 0 1  
Month to date heating degree days 0 2  
Since 1 June heating degree days 13 62  
Since 1 July heating degree days 0 3  
Cooling Degree Days 11 3  
Month to date cooling degree days 188 168  
Year to date cooling degree days 685 511  
Since 1 June cooling degree days 678 504  
Growing Degree Days 25 (Base 50)    
Moisture  
Dew Point 44 °F    
Average Humidity 40    
Maximum Humidity 67    
Minimum Humidity 12    
Precipitation  
Precipitation 0.00 in 0.05 in 0.37 in (1969)
Month to date precipitation 0.30 1.30  
Year to date precipitation 5.06 8.87  
Sea Level Pressure  
Sea Level Pressure 30.01 in    
Wind  
Wind Speed 6 mph (SSW)    
Max Wind Speed 18 mph    
Max Gust Speed 24 mph    
Visibility 10 miles    
Events      
T = Trace of Precipitation, MM = Missing Value Source: NWS Daily Summary

Daily Weather History Graph

Daily Weather History Graph

Search for Another Location

Airport or City:

Trip Planner

Search our weather history database for the weather conditions in past years. The results will help you decide how hot, cold, wet, or windy it might be!

Date:

Astronomy

Aug. 29, 2013 Rise Set
Actual Time 6:36 AM MDT 7:46 PM MDT
Civil Twilight 6:08 AM MDT 8:13 PM MDT
Nautical Twilight 5:35 AM MDT 8:46 PM MDT
Astronomical Twilight 5:01 AM MDT 9:21 PM MDT
Moon 12:31 AM MDT (8/29) 3:16 PM MDT (8/29)
Length of Visible Light 14h 04m
Length of Day
13h 09m
Last Quarter, 37% of the Moon is Illuminated
Aug 29
Last Quarter
Sep 5
New
Sep 12
First Quarter
Sep 19
Full
Sep 26
Last Quarter

Hourly Weather History & Observations

Time (MDT) Temp. Dew Point Humidity Pressure Visibility Wind Dir Wind Speed Gust Speed Precip Events Conditions
12:53 AM 68.0 °F 46.9 °F 47% 30.01 in 10.0 mi SE 4.6 mph - N/A   Clear
1:53 AM 64.0 °F 46.9 °F 54% 30.02 in 10.0 mi ESE 4.6 mph - N/A   Clear
2:53 AM 64.0 °F 46.0 °F 52% 30.01 in 10.0 mi ESE 5.8 mph - N/A   Clear
3:53 AM 63.0 °F 46.0 °F 54% 30.02 in 10.0 mi SE 5.8 mph - N/A   Clear
4:53 AM 61.0 °F 46.0 °F 58% 30.03 in 10.0 mi Calm Calm - N/A   Clear
5:53 AM 60.1 °F 46.0 °F 60% 30.04 in 10.0 mi Calm Calm - N/A   Clear
6:53 AM 57.9 °F 46.0 °F 65% 30.07 in 10.0 mi SSE 3.5 mph - N/A   Clear
7:53 AM 61.0 °F 46.9 °F 60% 30.10 in 10.0 mi Calm Calm - N/A   Clear
8:53 AM 66.0 °F 48.0 °F 52% 30.10 in 10.0 mi Calm Calm - N/A   Clear
9:53 AM 72.0 °F 48.0 °F 43% 30.08 in 10.0 mi Calm Calm - N/A   Clear
10:53 AM 77.0 °F 48.0 °F 36% 30.06 in 10.0 mi Calm Calm - N/A   Clear
11:53 AM 82.0 °F 46.9 °F 29% 30.04 in 10.0 mi NNW 3.5 mph - N/A   Clear
12:53 PM 86.0 °F 43.0 °F 22% 30.00 in 10.0 mi NW 3.5 mph - N/A   Clear
1:53 PM 90.0 °F 41.0 °F 18% 29.98 in 10.0 mi NW 8.1 mph - N/A   Clear
2:53 PM 91.9 °F 43.0 °F 18% 29.95 in 10.0 mi West 11.5 mph - N/A   Clear
3:53 PM 91.9 °F 37.9 °F 15% 29.93 in 10.0 mi Variable 4.6 mph - N/A   Clear
4:53 PM 93.9 °F 33.1 °F 12% 29.91 in 10.0 mi Variable 6.9 mph - N/A   Partly Cloudy
5:53 PM 93.0 °F 36.0 °F 13% 29.91 in 10.0 mi West 10.4 mph - N/A   Clear
6:53 PM 91.0 °F 39.0 °F 16% 29.93 in 10.0 mi West 11.5 mph - N/A   Clear
7:53 PM 86.0 °F 37.9 °F 18% 29.96 in 10.0 mi West 9.2 mph - N/A   Clear
8:53 PM 82.9 °F 39.0 °F 21% 29.98 in 10.0 mi WNW 6.9 mph - N/A   Clear
9:53 PM 80.1 °F 44.1 °F 28% 30.00 in 10.0 mi ESE 9.2 mph - N/A   Clear
10:53 PM 78.1 °F 46.9 °F 33% 30.02 in 10.0 mi East 16.1 mph - N/A   Clear
11:53 PM 75.9 °F 48.0 °F 37% 30.03 in 10.0 mi ENE 13.8 mph - N/A   Clear